Location: Peebles
(55.6412°N, 3.1714°W)
Time: 18:32:12
(UTC+01:00)

USA 281 - Pass Details

Date: 02 February 2022
Orbit: 1070 x 1089 km, 106.0° (Epoch: 25 March)

Event Time Altitude Azimuth Distance (km) Brightness Sun altitude
Rises 01:01:22 0° 33° (NNE) 3,908 6.7 -50.7°
Reaches altitude 10° 01:04:28 10° 47° (NE) 2,947 5.9 -50.5°
Enters shadow 01:04:47 11° 48° (NE) 2,863 5.8 -50.5°
